Year,Month,Day,Hour,Minute,Value (Times are PST for windgust in km/hr)
2008,02,07,00,00,6.40
2008,02,07,00,01,1.60
2008,02,07,00,02,1.60
2008,02,07,00,03,4.80
2008,02,07,00,04,9.60
2008,02,07,00,05,3.20
2008,02,07,00,06,4.80
2008,02,07,00,07,6.40
2008,02,07,00,08,6.40
2008,02,07,00,09,6.40
2008,02,07,00,10,1.60
2008,02,07,00,11,3.20
2008,02,07,00,12,4.80
2008,02,07,00,13,6.40
2008,02,07,00,14,8.10
2008,02,07,00,15,4.80
2008,02,07,00,16,6.40
2008,02,07,00,17,11.30
2008,02,07,00,18,4.80
2008,02,07,00,19,4.80
2008,02,07,00,20,4.80
2008,02,07,00,21,4.80
2008,02,07,00,22,3.20
2008,02,07,00,23,4.80
2008,02,07,00,24,11.30
2008,02,07,00,25,3.20
2008,02,07,00,26,11.30
2008,02,07,00,27,17.70
2008,02,07,00,28,8.10
2008,02,07,00,29,9.60
2008,02,07,00,30,16.10
2008,02,07,00,31,3.20
2008,02,07,00,32,11.30
2008,02,07,00,33,8.10
2008,02,07,00,34,19.30
2008,02,07,00,35,19.30
2008,02,07,00,36,11.30
2008,02,07,00,37,14.50
2008,02,07,00,38,12.90
2008,02,07,00,39,11.30
2008,02,07,00,40,8.10
2008,02,07,00,41,8.10
2008,02,07,00,42,6.40
2008,02,07,00,43,8.10
2008,02,07,00,44,16.10
2008,02,07,00,45,19.30
2008,02,07,00,46,14.50
2008,02,07,00,47,11.30
2008,02,07,00,48,14.50
2008,02,07,00,49,12.90
2008,02,07,00,50,14.50
2008,02,07,00,51,8.10
2008,02,07,00,52,17.70
2008,02,07,00,53,22.50
2008,02,07,00,54,20.90
2008,02,07,00,55,25.70
2008,02,07,00,56,30.60
2008,02,07,00,57,33.80
2008,02,07,00,58,35.40
2008,02,07,00,59,37.00
2008,02,07,01,00,37.00
2008,02,07,01,01,37.00
2008,02,07,01,02,33.80
2008,02,07,01,03,29.00
2008,02,07,01,04,33.80
2008,02,07,01,05,38.60
2008,02,07,01,06,45.10
2008,02,07,01,07,33.80
2008,02,07,01,08,33.80
2008,02,07,01,09,48.30
2008,02,07,01,10,49.90
2008,02,07,01,11,43.50
2008,02,07,01,12,48.30
2008,02,07,01,13,35.40
2008,02,07,01,14,48.30
2008,02,07,01,15,40.20
2008,02,07,01,16,41.80
2008,02,07,01,17,40.20
2008,02,07,01,18,33.80
2008,02,07,01,19,32.20
2008,02,07,01,20,33.80
2008,02,07,01,21,37.00
2008,02,07,01,22,27.40
2008,02,07,01,23,25.70
2008,02,07,01,24,46.70
2008,02,07,01,25,24.20
2008,02,07,01,26,43.50
2008,02,07,01,27,37.00
2008,02,07,01,28,24.20
2008,02,07,01,29,49.90
2008,02,07,01,30,32.20
2008,02,07,01,31,41.80
2008,02,07,01,32,38.60
2008,02,07,01,33,38.60
2008,02,07,01,34,53.10
2008,02,07,01,35,41.80
2008,02,07,01,36,41.80
2008,02,07,01,37,35.40
2008,02,07,01,38,19.30
2008,02,07,01,39,57.90
2008,02,07,01,40,37.00
2008,02,07,01,41,38.60
2008,02,07,01,42,51.50
2008,02,07,01,43,46.70
2008,02,07,01,44,27.40
2008,02,07,01,45,51.50
2008,02,07,01,46,45.10
2008,02,07,01,47,35.40
2008,02,07,01,48,40.20
2008,02,07,01,49,35.40
2008,02,07,01,50,41.80
2008,02,07,01,51,33.80
2008,02,07,01,52,29.00
2008,02,07,01,53,35.40
2008,02,07,01,54,29.00
2008,02,07,01,55,41.80
2008,02,07,01,56,46.70
2008,02,07,01,57,38.60
2008,02,07,01,58,33.80
2008,02,07,01,59,38.60
2008,02,07,02,00,35.40
2008,02,07,02,01,41.80
2008,02,07,02,02,35.40
2008,02,07,02,03,32.20
2008,02,07,02,04,43.50
2008,02,07,02,05,29.00
2008,02,07,02,06,33.80
2008,02,07,02,07,29.00
2008,02,07,02,08,29.00
2008,02,07,02,09,53.10
2008,02,07,02,10,49.90
2008,02,07,02,11,38.60
2008,02,07,02,12,33.80
2008,02,07,02,13,49.90
2008,02,07,02,14,45.10
2008,02,07,02,15,38.60
2008,02,07,02,16,38.60
2008,02,07,02,17,38.60
2008,02,07,02,18,35.40
2008,02,07,02,19,40.20
2008,02,07,02,20,46.70
2008,02,07,02,21,25.70
2008,02,07,02,22,33.80
2008,02,07,02,23,41.80
2008,02,07,02,24,37.00
2008,02,07,02,25,46.70
2008,02,07,02,26,41.80
2008,02,07,02,27,25.70
2008,02,07,02,28,54.70
2008,02,07,02,29,53.10
2008,02,07,02,30,59.50
2008,02,07,02,31,38.60
2008,02,07,02,32,48.30
2008,02,07,02,33,49.90
2008,02,07,02,34,38.60
2008,02,07,02,35,41.80
2008,02,07,02,36,32.20
2008,02,07,02,37,49.90
2008,02,07,02,38,38.60
2008,02,07,02,39,43.50
2008,02,07,02,40,40.20
2008,02,07,02,41,46.70
2008,02,07,02,42,40.20
2008,02,07,02,43,66.00
2008,02,07,02,44,51.50
2008,02,07,02,45,46.70
2008,02,07,02,46,54.70
2008,02,07,02,47,43.50
2008,02,07,02,48,25.70
2008,02,07,02,49,37.00
2008,02,07,02,50,33.80
2008,02,07,02,51,30.60
2008,02,07,02,52,41.80
2008,02,07,02,53,40.20
2008,02,07,02,54,40.20
2008,02,07,02,55,38.60
2008,02,07,02,56,51.50
2008,02,07,02,57,25.70
2008,02,07,02,58,40.20
2008,02,07,02,59,43.50
2008,02,07,03,00,46.70
2008,02,07,03,01,41.80
2008,02,07,03,02,49.90
2008,02,07,03,03,48.30
2008,02,07,03,04,54.70
2008,02,07,03,05,46.70
2008,02,07,03,06,46.70
2008,02,07,03,07,51.50
2008,02,07,03,08,53.10
2008,02,07,03,09,51.50
2008,02,07,03,10,38.60
2008,02,07,03,11,46.70
2008,02,07,03,12,54.70
2008,02,07,03,13,51.50
2008,02,07,03,14,53.10
2008,02,07,03,15,53.10
2008,02,07,03,16,48.30
2008,02,07,03,17,53.10
2008,02,07,03,18,43.50
2008,02,07,03,19,38.60
2008,02,07,03,20,53.10
2008,02,07,03,21,57.90
2008,02,07,03,22,32.20
2008,02,07,03,23,66.00
2008,02,07,03,24,48.30
2008,02,07,03,25,77.30
2008,02,07,03,26,40.20
2008,02,07,03,27,74.00
2008,02,07,03,28,43.50
2008,02,07,03,29,49.90
2008,02,07,03,30,48.30
2008,02,07,03,31,48.30
2008,02,07,03,32,53.10
2008,02,07,03,33,43.50
2008,02,07,03,34,51.50
2008,02,07,03,35,51.50
2008,02,07,03,36,38.60
2008,02,07,03,37,53.10
2008,02,07,03,38,38.60
2008,02,07,03,39,41.80
2008,02,07,03,40,43.50
2008,02,07,03,41,49.90
2008,02,07,03,42,38.60
2008,02,07,03,43,46.70
2008,02,07,03,44,40.20
2008,02,07,03,45,49.90
2008,02,07,03,46,37.00
2008,02,07,03,47,32.20
2008,02,07,03,48,48.30
2008,02,07,03,49,56.30
2008,02,07,03,50,49.90
2008,02,07,03,51,57.90
2008,02,07,03,52,41.80
2008,02,07,03,53,53.10
2008,02,07,03,54,53.10
2008,02,07,03,55,27.40
2008,02,07,03,56,29.00
2008,02,07,03,57,59.50
2008,02,07,03,58,38.60
2008,02,07,03,59,38.60
2008,02,07,04,00,32.20
2008,02,07,04,01,48.30
2008,02,07,04,02,40.20
2008,02,07,04,03,46.70
2008,02,07,04,04,53.10
2008,02,07,04,05,40.20
2008,02,07,04,06,54.70
2008,02,07,04,07,45.10
2008,02,07,04,08,59.50
2008,02,07,04,09,57.90
2008,02,07,04,10,59.50
2008,02,07,04,11,53.10
2008,02,07,04,12,46.70
2008,02,07,04,13,32.20
2008,02,07,04,14,48.30
2008,02,07,04,15,45.10
2008,02,07,04,16,51.50
2008,02,07,04,17,45.10
2008,02,07,04,18,40.20
2008,02,07,04,19,53.10
2008,02,07,04,20,53.10
2008,02,07,04,21,51.50
2008,02,07,04,22,49.90
2008,02,07,04,23,40.20
2008,02,07,04,24,53.10
2008,02,07,04,25,53.10
2008,02,07,04,26,35.40
2008,02,07,04,27,59.50
2008,02,07,04,28,53.10
2008,02,07,04,29,51.50
2008,02,07,04,30,53.10
2008,02,07,04,31,53.10
2008,02,07,04,32,38.60
2008,02,07,04,33,41.80
2008,02,07,04,34,35.40
2008,02,07,04,35,53.10
2008,02,07,04,36,45.10
2008,02,07,04,37,37.00
2008,02,07,04,38,37.00
2008,02,07,04,39,29.00
2008,02,07,04,40,33.80
2008,02,07,04,41,37.00
2008,02,07,04,42,49.90
2008,02,07,04,43,53.10
2008,02,07,04,44,43.50
2008,02,07,04,45,32.20
2008,02,07,04,46,37.00
2008,02,07,04,47,43.50
2008,02,07,04,48,32.20
2008,02,07,04,49,33.80
2008,02,07,04,50,33.80
2008,02,07,04,51,38.60
2008,02,07,04,52,38.60
2008,02,07,04,53,24.20
2008,02,07,04,54,20.90
2008,02,07,04,55,22.50
2008,02,07,04,56,38.60
2008,02,07,04,57,19.30
2008,02,07,04,58,43.50
2008,02,07,04,59,35.40
2008,02,07,05,00,25.70
2008,02,07,05,01,43.50
2008,02,07,05,02,33.80
2008,02,07,05,03,22.50
2008,02,07,05,04,17.70
2008,02,07,05,05,41.80
2008,02,07,05,06,33.80
2008,02,07,05,07,32.20
2008,02,07,05,08,27.40
2008,02,07,05,09,35.40
2008,02,07,05,10,35.40
2008,02,07,05,11,27.40
2008,02,07,05,12,33.80
2008,02,07,05,13,38.60
2008,02,07,05,14,33.80
2008,02,07,05,15,43.50
2008,02,07,05,16,64.40
2008,02,07,05,17,48.30
2008,02,07,05,18,59.50
2008,02,07,05,19,64.40
2008,02,07,05,20,54.70
2008,02,07,05,21,59.50
2008,02,07,05,22,51.50
2008,02,07,05,23,41.80
2008,02,07,05,24,35.40
2008,02,07,05,25,54.70
2008,02,07,05,26,38.60
2008,02,07,05,27,40.20
2008,02,07,05,28,35.40
2008,02,07,05,29,40.20
2008,02,07,05,30,25.70
2008,02,07,05,31,45.10
2008,02,07,05,32,27.40
2008,02,07,05,33,32.20
2008,02,07,05,34,29.00
2008,02,07,05,35,16.10
2008,02,07,05,36,19.30
2008,02,07,05,37,32.20
2008,02,07,05,38,30.60
2008,02,07,05,39,25.70
2008,02,07,05,40,48.30
2008,02,07,05,41,41.80
2008,02,07,05,42,45.10
2008,02,07,05,43,38.60
2008,02,07,05,44,41.80
2008,02,07,05,45,25.70
2008,02,07,05,46,35.40
2008,02,07,05,47,48.30
2008,02,07,05,48,33.80
2008,02,07,05,49,41.80
2008,02,07,05,50,33.80
2008,02,07,05,51,41.80
2008,02,07,05,52,25.70
2008,02,07,05,53,35.40
2008,02,07,05,54,33.80
2008,02,07,05,55,25.70
2008,02,07,05,56,29.00
2008,02,07,05,57,37.00
2008,02,07,05,58,43.50
2008,02,07,05,59,40.20
2008,02,07,06,00,40.20
2008,02,07,06,01,37.00
2008,02,07,06,02,51.50
2008,02,07,06,03,32.20
2008,02,07,06,04,41.80
2008,02,07,06,05,51.50
2008,02,07,06,06,38.60
2008,02,07,06,07,41.80
2008,02,07,06,08,54.70
2008,02,07,06,09,48.30
2008,02,07,06,10,33.80
2008,02,07,06,11,22.50
2008,02,07,06,12,25.70
2008,02,07,06,13,32.20
2008,02,07,06,14,48.30
2008,02,07,06,15,29.00
2008,02,07,06,16,32.20
2008,02,07,06,17,45.10
2008,02,07,06,18,48.30
2008,02,07,06,19,43.50
2008,02,07,06,20,40.20
2008,02,07,06,21,33.80
2008,02,07,06,22,43.50
2008,02,07,06,23,40.20
2008,02,07,06,24,38.60
2008,02,07,06,25,43.50
2008,02,07,06,26,61.20
2008,02,07,06,27,45.10
2008,02,07,06,28,37.00
2008,02,07,06,29,41.80
2008,02,07,06,30,37.00
2008,02,07,06,31,37.00
2008,02,07,06,32,30.60
2008,02,07,06,33,29.00
2008,02,07,06,34,25.70
2008,02,07,06,35,37.00
2008,02,07,06,36,41.80
2008,02,07,06,37,30.60
2008,02,07,06,38,33.80
2008,02,07,06,39,29.00
2008,02,07,06,40,37.00
2008,02,07,06,41,29.00
2008,02,07,06,42,29.00
2008,02,07,06,43,33.80
2008,02,07,06,44,30.60
2008,02,07,06,45,32.20
2008,02,07,06,46,45.10
2008,02,07,06,47,29.00
2008,02,07,06,48,51.50
2008,02,07,06,49,30.60
2008,02,07,06,50,35.40
2008,02,07,06,51,29.00
2008,02,07,06,52,46.70
2008,02,07,06,53,29.00
2008,02,07,06,54,32.20
2008,02,07,06,55,53.10
2008,02,07,06,56,33.80
2008,02,07,06,57,27.40
2008,02,07,06,58,43.50
2008,02,07,06,59,45.10
2008,02,07,07,00,35.40
2008,02,07,07,01,33.80
2008,02,07,07,02,32.20
2008,02,07,07,03,48.30
2008,02,07,07,04,29.00
2008,02,07,07,05,30.60
2008,02,07,07,06,33.80
2008,02,07,07,07,32.20
2008,02,07,07,08,35.40
2008,02,07,07,09,41.80
2008,02,07,07,10,53.10
2008,02,07,07,11,30.60
2008,02,07,07,12,38.60
2008,02,07,07,13,38.60
2008,02,07,07,14,38.60
2008,02,07,07,15,30.60
2008,02,07,07,16,22.50
2008,02,07,07,17,19.30
2008,02,07,07,18,30.60
2008,02,07,07,19,45.10
2008,02,07,07,20,32.20
2008,02,07,07,21,40.20
2008,02,07,07,22,54.70
2008,02,07,07,23,59.50
2008,02,07,07,24,41.80
2008,02,07,07,25,46.70
2008,02,07,07,26,30.60
2008,02,07,07,27,51.50
2008,02,07,07,28,49.90
2008,02,07,07,29,51.50
2008,02,07,07,30,33.80
2008,02,07,07,31,32.20
2008,02,07,07,32,35.40
2008,02,07,07,33,32.20
2008,02,07,07,34,41.80
2008,02,07,07,35,53.10
2008,02,07,07,36,66.00
2008,02,07,07,37,53.10
2008,02,07,07,38,54.70
2008,02,07,07,39,51.50
2008,02,07,07,40,40.20
2008,02,07,07,41,33.80
2008,02,07,07,42,48.30
2008,02,07,07,43,35.40
2008,02,07,07,44,53.10
2008,02,07,07,45,40.20
2008,02,07,07,46,37.00
2008,02,07,07,47,62.70
2008,02,07,07,48,56.30
2008,02,07,07,49,35.40
2008,02,07,07,50,41.80
2008,02,07,07,51,53.10
2008,02,07,07,52,53.10
2008,02,07,07,53,41.80
2008,02,07,07,54,38.60
2008,02,07,07,55,49.90
2008,02,07,07,56,43.50
2008,02,07,07,57,38.60
2008,02,07,07,58,40.20
2008,02,07,07,59,41.80
2008,02,07,08,00,51.50
2008,02,07,08,01,32.20
2008,02,07,08,02,49.90
2008,02,07,08,03,30.60
2008,02,07,08,04,27.40
2008,02,07,08,05,35.40
2008,02,07,08,06,49.90
2008,02,07,08,07,43.50
2008,02,07,08,08,46.70
2008,02,07,08,09,35.40
2008,02,07,08,10,30.60
2008,02,07,08,11,32.20
2008,02,07,08,12,38.60
2008,02,07,08,13,37.00
2008,02,07,08,14,38.60
2008,02,07,08,15,46.70
2008,02,07,08,16,43.50
2008,02,07,08,17,48.30
2008,02,07,08,18,56.30
2008,02,07,08,19,33.80
2008,02,07,08,20,35.40
2008,02,07,08,21,49.90
2008,02,07,08,22,40.20
2008,02,07,08,23,45.10
2008,02,07,08,24,40.20
2008,02,07,08,25,37.00
2008,02,07,08,26,37.00
2008,02,07,08,27,32.20
2008,02,07,08,28,38.60
2008,02,07,08,29,27.40
2008,02,07,08,30,30.60
2008,02,07,08,31,33.80
2008,02,07,08,32,38.60
2008,02,07,08,33,40.20
2008,02,07,08,34,41.80
2008,02,07,08,35,29.00
2008,02,07,08,36,37.00
2008,02,07,08,37,38.60
2008,02,07,08,38,43.50
2008,02,07,08,39,57.90
2008,02,07,08,40,37.00
2008,02,07,08,41,33.80
2008,02,07,08,42,41.80
2008,02,07,08,43,56.30
2008,02,07,08,44,48.30
2008,02,07,08,45,45.10
2008,02,07,08,46,40.20
2008,02,07,08,47,51.50
2008,02,07,08,48,51.50
2008,02,07,08,49,35.40
2008,02,07,08,50,35.40
2008,02,07,08,51,35.40
2008,02,07,08,52,41.80
2008,02,07,08,53,37.00
2008,02,07,08,54,38.60
2008,02,07,08,55,33.80
2008,02,07,08,56,33.80
2008,02,07,08,57,27.40
2008,02,07,08,58,33.80
2008,02,07,08,59,41.80
2008,02,07,09,00,38.60
2008,02,07,09,01,38.60
2008,02,07,09,02,25.70
2008,02,07,09,03,25.70
2008,02,07,09,04,45.10
2008,02,07,09,05,27.40
2008,02,07,09,06,33.80
2008,02,07,09,07,25.70
2008,02,07,09,08,32.20
2008,02,07,09,09,53.10
2008,02,07,09,10,27.40
2008,02,07,09,11,38.60
2008,02,07,09,12,22.50
2008,02,07,09,13,30.60
2008,02,07,09,14,45.10
2008,02,07,09,15,25.70
2008,02,07,09,16,25.70
2008,02,07,09,17,32.20
2008,02,07,09,18,49.90
2008,02,07,09,19,35.40
2008,02,07,09,20,30.60
2008,02,07,09,21,37.00
2008,02,07,09,22,29.00
2008,02,07,09,23,43.50
2008,02,07,09,24,40.20
2008,02,07,09,25,32.20
2008,02,07,09,26,46.70
2008,02,07,09,27,38.60
2008,02,07,09,28,32.20
2008,02,07,09,29,33.80
2008,02,07,09,30,37.00
2008,02,07,09,31,46.70
2008,02,07,09,32,29.00
2008,02,07,09,33,53.10
2008,02,07,09,34,40.20
2008,02,07,09,35,37.00
2008,02,07,09,36,38.60
2008,02,07,09,37,40.20
2008,02,07,09,38,33.80
2008,02,07,09,39,19.30
2008,02,07,09,40,20.90
2008,02,07,09,41,33.80
2008,02,07,09,42,30.60
2008,02,07,09,43,27.40
2008,02,07,09,44,32.20
2008,02,07,09,45,27.40
2008,02,07,09,46,40.20
2008,02,07,09,47,25.70
2008,02,07,09,48,37.00
2008,02,07,09,49,32.20
2008,02,07,09,50,33.80
2008,02,07,09,51,40.20
2008,02,07,09,52,38.60
2008,02,07,09,53,32.20
2008,02,07,09,54,38.60
2008,02,07,09,55,32.20
2008,02,07,09,56,35.40
2008,02,07,09,57,37.00
2008,02,07,09,58,37.00
2008,02,07,09,59,45.10
2008,02,07,10,00,51.50
2008,02,07,10,01,48.30
2008,02,07,10,02,43.50
2008,02,07,10,03,37.00
2008,02,07,10,04,37.00
2008,02,07,10,05,53.10
2008,02,07,10,06,38.60
2008,02,07,10,07,29.00
2008,02,07,10,08,30.60
2008,02,07,10,09,53.10
2008,02,07,10,10,38.60
2008,02,07,10,11,33.80
2008,02,07,10,12,27.40
2008,02,07,10,13,32.20
2008,02,07,10,14,35.40
2008,02,07,10,15,35.40
2008,02,07,10,16,22.50
2008,02,07,10,17,24.20
2008,02,07,10,18,32.20
2008,02,07,10,19,27.40
2008,02,07,10,20,25.70
2008,02,07,10,21,32.20
2008,02,07,10,22,35.40
2008,02,07,10,23,37.00
2008,02,07,10,24,30.60
2008,02,07,10,25,41.80
2008,02,07,10,26,53.10
2008,02,07,10,27,33.80
2008,02,07,10,28,32.20
2008,02,07,10,29,30.60
2008,02,07,10,30,40.20
2008,02,07,10,31,40.20
2008,02,07,10,32,35.40
2008,02,07,10,33,30.60
2008,02,07,10,34,29.00
2008,02,07,10,35,24.20
2008,02,07,10,36,37.00
2008,02,07,10,37,43.50
2008,02,07,10,38,37.00
2008,02,07,10,39,25.70
2008,02,07,10,40,27.40
2008,02,07,10,41,20.90
2008,02,07,10,42,22.50
2008,02,07,10,43,20.90
2008,02,07,10,44,22.50
2008,02,07,10,45,33.80
2008,02,07,10,46,33.80
2008,02,07,10,47,20.90
2008,02,07,10,48,22.50
2008,02,07,10,49,27.40
2008,02,07,10,50,25.70
2008,02,07,10,51,25.70
2008,02,07,10,52,20.90
2008,02,07,10,53,24.20
2008,02,07,10,54,24.20
2008,02,07,10,55,35.40
2008,02,07,10,56,25.70
2008,02,07,10,57,24.20
2008,02,07,10,58,20.90
2008,02,07,10,59,24.20
2008,02,07,11,00,38.60
2008,02,07,11,01,33.80
2008,02,07,11,02,29.00
2008,02,07,11,03,29.00
2008,02,07,11,04,37.00
2008,02,07,11,05,35.40
2008,02,07,11,06,30.60
2008,02,07,11,07,22.50
2008,02,07,11,08,19.30
2008,02,07,11,09,24.20
2008,02,07,11,10,17.70
2008,02,07,11,11,25.70
2008,02,07,11,12,17.70
2008,02,07,11,13,30.60
2008,02,07,11,14,22.50
2008,02,07,11,15,22.50
2008,02,07,11,16,20.90
2008,02,07,11,17,20.90
2008,02,07,11,18,19.30
2008,02,07,11,19,16.10
2008,02,07,11,20,33.80
2008,02,07,11,21,29.00
2008,02,07,11,22,33.80
2008,02,07,11,23,40.20
2008,02,07,11,24,33.80
2008,02,07,11,25,33.80
2008,02,07,11,26,40.20
2008,02,07,11,27,53.10
2008,02,07,11,28,32.20
2008,02,07,11,29,16.10
2008,02,07,11,30,38.60
2008,02,07,11,31,48.30
2008,02,07,11,32,41.80
2008,02,07,11,33,33.80
2008,02,07,11,34,27.40
2008,02,07,11,35,25.70
2008,02,07,11,36,24.20
2008,02,07,11,37,25.70
2008,02,07,11,38,38.60
2008,02,07,11,39,24.20
2008,02,07,11,40,29.00
2008,02,07,11,41,40.20
2008,02,07,11,42,27.40
2008,02,07,11,43,33.80
2008,02,07,11,44,29.00
2008,02,07,11,45,32.20
2008,02,07,11,46,38.60
2008,02,07,11,47,30.60
2008,02,07,11,48,27.40
2008,02,07,11,49,37.00
2008,02,07,11,50,24.20
2008,02,07,11,51,27.40
2008,02,07,11,52,24.20
2008,02,07,11,53,27.40
2008,02,07,11,54,33.80
2008,02,07,11,55,35.40
2008,02,07,11,56,19.30
2008,02,07,11,57,29.00
2008,02,07,11,58,41.80
2008,02,07,11,59,33.80
2008,02,07,12,00,30.60
2008,02,07,12,01,25.70
2008,02,07,12,02,45.10
2008,02,07,12,03,49.90
2008,02,07,12,04,33.80
2008,02,07,12,05,48.30
2008,02,07,12,06,41.80
2008,02,07,12,07,41.80
2008,02,07,12,08,43.50
2008,02,07,12,09,27.40
2008,02,07,12,10,27.40
2008,02,07,12,11,37.00
2008,02,07,12,12,32.20
2008,02,07,12,13,45.10
2008,02,07,12,14,33.80
2008,02,07,12,15,33.80
2008,02,07,12,16,37.00
2008,02,07,12,17,38.60
2008,02,07,12,18,37.00
2008,02,07,12,19,40.20
2008,02,07,12,20,49.90
2008,02,07,12,21,29.00
2008,02,07,12,22,37.00
2008,02,07,12,23,43.50
2008,02,07,12,24,53.10
2008,02,07,12,25,41.80
2008,02,07,12,26,33.80
2008,02,07,12,27,27.40
2008,02,07,12,28,35.40
2008,02,07,12,29,46.70
2008,02,07,12,30,32.20
2008,02,07,12,31,30.60
2008,02,07,12,32,46.70
2008,02,07,12,33,35.40
2008,02,07,12,34,41.80
2008,02,07,12,35,32.20
2008,02,07,12,36,41.80
2008,02,07,12,37,46.70
2008,02,07,12,38,35.40
2008,02,07,12,39,30.60
2008,02,07,12,40,37.00
2008,02,07,12,41,22.50
2008,02,07,12,42,24.20
2008,02,07,12,43,24.20
2008,02,07,12,44,16.10
2008,02,07,12,45,25.70
2008,02,07,12,46,29.00
2008,02,07,12,47,27.40
2008,02,07,12,48,22.50
2008,02,07,12,49,35.40
2008,02,07,12,50,33.80
2008,02,07,12,51,43.50
2008,02,07,12,52,37.00
2008,02,07,12,53,27.40
2008,02,07,12,54,22.50
2008,02,07,12,55,37.00
2008,02,07,12,56,29.00
2008,02,07,12,57,33.80
2008,02,07,12,58,29.00
2008,02,07,12,59,25.70
2008,02,07,13,00,35.40
2008,02,07,13,01,30.60
2008,02,07,13,02,30.60
2008,02,07,13,03,27.40
2008,02,07,13,04,29.00
2008,02,07,13,05,25.70
2008,02,07,13,06,38.60
2008,02,07,13,07,29.00
2008,02,07,13,08,30.60
2008,02,07,13,09,27.40
2008,02,07,13,10,29.00
2008,02,07,13,11,33.80
2008,02,07,13,12,27.40
2008,02,07,13,13,41.80
2008,02,07,13,14,30.60
2008,02,07,13,15,30.60
2008,02,07,13,16,29.00
2008,02,07,13,17,27.40
2008,02,07,13,18,20.90
2008,02,07,13,19,32.20
2008,02,07,13,20,33.80
2008,02,07,13,21,45.10
2008,02,07,13,22,59.50
2008,02,07,13,23,35.40
2008,02,07,13,24,48.30
2008,02,07,13,25,43.50
2008,02,07,13,26,43.50
2008,02,07,13,27,41.80
2008,02,07,13,28,35.40
2008,02,07,13,29,32.20
2008,02,07,13,30,53.10
2008,02,07,13,31,43.50
2008,02,07,13,32,59.50
2008,02,07,13,33,33.80
2008,02,07,13,34,37.00
2008,02,07,13,35,25.70
2008,02,07,13,36,40.20
2008,02,07,13,37,38.60
2008,02,07,13,38,41.80
2008,02,07,13,39,48.30
2008,02,07,13,40,43.50
2008,02,07,13,41,37.00
2008,02,07,13,42,20.90
2008,02,07,13,43,30.60
2008,02,07,13,44,22.50
2008,02,07,13,45,32.20
2008,02,07,13,46,29.00
2008,02,07,13,47,25.70
2008,02,07,13,48,25.70
2008,02,07,13,49,25.70
2008,02,07,13,50,25.70
2008,02,07,13,51,24.20
2008,02,07,13,52,33.80
2008,02,07,13,53,35.40
2008,02,07,13,54,29.00
2008,02,07,13,55,22.50
2008,02,07,13,56,37.00
2008,02,07,13,57,30.60
2008,02,07,13,58,38.60
2008,02,07,13,59,37.00
2008,02,07,14,00,35.40
2008,02,07,14,01,35.40
2008,02,07,14,02,35.40
2008,02,07,14,03,25.70
2008,02,07,14,04,33.80
2008,02,07,14,05,35.40
2008,02,07,14,06,38.60
2008,02,07,14,07,45.10
2008,02,07,14,08,25.70
2008,02,07,14,09,38.60
2008,02,07,14,10,32.20
2008,02,07,14,11,30.60
2008,02,07,14,12,33.80
2008,02,07,14,13,27.40
2008,02,07,14,14,37.00
2008,02,07,14,15,27.40
2008,02,07,14,16,35.40
2008,02,07,14,17,24.20
2008,02,07,14,18,33.80
2008,02,07,14,19,22.50
2008,02,07,14,20,22.50
2008,02,07,14,21,33.80
2008,02,07,14,22,38.60
2008,02,07,14,23,30.60
2008,02,07,14,24,27.40
2008,02,07,14,25,46.70
2008,02,07,14,26,40.20
2008,02,07,14,27,43.50
2008,02,07,14,28,41.80
2008,02,07,14,29,33.80
2008,02,07,14,30,48.30
2008,02,07,14,31,35.40
2008,02,07,14,32,30.60
2008,02,07,14,33,27.40
2008,02,07,14,34,27.40
2008,02,07,14,35,35.40
2008,02,07,14,36,37.00
2008,02,07,14,37,24.20
2008,02,07,14,38,20.90
2008,02,07,14,39,24.20
2008,02,07,14,40,29.00
2008,02,07,14,41,32.20
2008,02,07,14,42,20.90
2008,02,07,14,43,40.20
2008,02,07,14,44,46.70
2008,02,07,14,45,37.00
2008,02,07,14,46,45.10
2008,02,07,14,47,40.20
2008,02,07,14,48,38.60
2008,02,07,14,49,32.20
2008,02,07,14,50,40.20
2008,02,07,14,51,51.50
2008,02,07,14,52,40.20
2008,02,07,14,53,48.30
2008,02,07,14,54,43.50
2008,02,07,14,55,41.80
2008,02,07,14,56,48.30
2008,02,07,14,57,29.00
2008,02,07,14,58,25.70
2008,02,07,14,59,45.10
2008,02,07,15,00,37.00
2008,02,07,15,01,33.80
2008,02,07,15,02,33.80
2008,02,07,15,03,27.40
2008,02,07,15,04,41.80
2008,02,07,15,05,33.80
2008,02,07,15,06,40.20
2008,02,07,15,07,33.80
2008,02,07,15,08,45.10
2008,02,07,15,09,38.60
2008,02,07,15,10,30.60
2008,02,07,15,11,41.80
2008,02,07,15,12,35.40
2008,02,07,15,13,38.60
2008,02,07,15,14,54.70
2008,02,07,15,15,37.00
2008,02,07,15,16,43.50
2008,02,07,15,17,41.80
2008,02,07,15,18,37.00
2008,02,07,15,19,38.60
2008,02,07,15,20,25.70
2008,02,07,15,21,24.20
2008,02,07,15,22,33.80
2008,02,07,15,23,35.40
2008,02,07,15,24,20.90
2008,02,07,15,25,38.60
2008,02,07,15,26,32.20
2008,02,07,15,27,30.60
2008,02,07,15,28,43.50
2008,02,07,15,29,29.00
2008,02,07,15,30,30.60
2008,02,07,15,31,37.00
2008,02,07,15,32,40.20
2008,02,07,15,33,46.70
2008,02,07,15,34,29.00
2008,02,07,15,35,30.60
2008,02,07,15,36,32.20
2008,02,07,15,37,37.00
2008,02,07,15,38,32.20
2008,02,07,15,39,29.00
2008,02,07,15,40,40.20
2008,02,07,15,41,40.20
2008,02,07,15,42,20.90
2008,02,07,15,43,37.00
2008,02,07,15,44,20.90
2008,02,07,15,45,32.20
2008,02,07,15,46,27.40
2008,02,07,15,47,24.20
2008,02,07,15,48,43.50
2008,02,07,15,49,38.60
2008,02,07,15,50,32.20
2008,02,07,15,51,22.50
2008,02,07,15,52,29.00
2008,02,07,15,53,30.60
2008,02,07,15,54,32.20
2008,02,07,15,55,25.70
2008,02,07,15,56,35.40
2008,02,07,15,57,27.40
2008,02,07,15,58,29.00
2008,02,07,15,59,25.70
2008,02,07,16,00,24.20
2008,02,07,16,01,29.00
2008,02,07,16,02,27.40
2008,02,07,16,03,37.00
2008,02,07,16,04,41.80
2008,02,07,16,05,33.80
2008,02,07,16,06,30.60
2008,02,07,16,07,37.00
2008,02,07,16,08,35.40
2008,02,07,16,09,32.20
2008,02,07,16,10,30.60
2008,02,07,16,11,38.60
2008,02,07,16,12,38.60
2008,02,07,16,13,32.20
2008,02,07,16,14,38.60
2008,02,07,16,15,30.60
2008,02,07,16,16,20.90
2008,02,07,16,17,32.20
2008,02,07,16,18,35.40
2008,02,07,16,19,29.00
2008,02,07,16,20,16.10
2008,02,07,16,21,27.40
2008,02,07,16,22,41.80
2008,02,07,16,23,30.60
2008,02,07,16,24,40.20
2008,02,07,16,25,40.20
2008,02,07,16,26,30.60
2008,02,07,16,27,35.40
2008,02,07,16,28,30.60
2008,02,07,16,29,51.50
2008,02,07,16,30,43.50
2008,02,07,16,31,37.00
2008,02,07,16,32,35.40
2008,02,07,16,33,43.50
2008,02,07,16,34,27.40
2008,02,07,16,35,29.00
2008,02,07,16,36,38.60
2008,02,07,16,37,29.00
2008,02,07,16,38,29.00
2008,02,07,16,39,33.80
2008,02,07,16,40,29.00
2008,02,07,16,41,22.50
2008,02,07,16,42,29.00
2008,02,07,16,43,33.80
2008,02,07,16,44,45.10
2008,02,07,16,45,33.80
2008,02,07,16,46,33.80
2008,02,07,16,47,38.60
2008,02,07,16,48,30.60
2008,02,07,16,49,30.60
2008,02,07,16,50,24.20
2008,02,07,16,51,27.40
2008,02,07,16,52,49.90
2008,02,07,16,53,33.80
2008,02,07,16,54,30.60
2008,02,07,16,55,20.90
2008,02,07,16,56,27.40
2008,02,07,16,57,32.20
2008,02,07,16,58,27.40
2008,02,07,16,59,45.10
2008,02,07,17,00,30.60
2008,02,07,17,01,38.60
2008,02,07,17,02,27.40
2008,02,07,17,03,32.20
2008,02,07,17,04,17.70
2008,02,07,17,05,27.40
2008,02,07,17,06,30.60
2008,02,07,17,07,32.20
2008,02,07,17,08,22.50
2008,02,07,17,09,16.10
2008,02,07,17,10,32.20
2008,02,07,17,11,40.20
2008,02,07,17,12,25.70
2008,02,07,17,13,30.60
2008,02,07,17,14,25.70
2008,02,07,17,15,27.40
2008,02,07,17,16,9.60
2008,02,07,17,17,25.70
2008,02,07,17,18,19.30
2008,02,07,17,19,24.20
2008,02,07,17,20,20.90